This is the latest recevied weather packets stored in our database for station/object KM4CBK. If no packets are shown the sender has not sent any weather packets the latest 10 day(s).
| Time | Temp. | Humidity | Pressure | Rain* | Wind** | Luminosity | Snow |
|---|---|---|---|---|---|---|---|
| 1777819710 | 17.78° C | 49% | 1021.2 hPa | 0 mm | - | 560 W/m² | - |
| 1777819409 | 17.78° C | 48% | 1021.2 hPa | 0 mm | - | 128 W/m² | - |
| 1777819106 | 17.78° C | 49% | 1021.1 hPa | 0 mm | - | 473 W/m² | - |
| 1777818802 | 17.22° C | 54% | 1021 hPa | 0 mm | - | 186 W/m² | - |
| 1777818498 | 17.22° C | 52% | 1021 hPa | 0 mm | - | 351 W/m² | - |
| 1777818196 | 17.78° C | 52% | 1020.9 hPa | 0 mm | - | 199 W/m² | - |
| 1777817892 | 17.78° C | 55% | 1020.9 hPa | 0 mm | - | 570 W/m² | - |
| 1777817590 | 17.22° C | 56% | 1021 hPa | 0 mm | - | 542 W/m² | - |
| 1777817286 | 16.11° C | 57% | 1021 hPa | 0 mm | - | 462 W/m² | - |
| 1777816983 | 16.11° C | 61% | 1020.8 hPa | 0 mm | - | 190 W/m² | - |
| 1777816679 | 16.11° C | 59% | 1020.8 hPa | 0 mm | - | 119 W/m² | - |
| 1777816376 | 16.11° C | 66% | 1020.8 hPa | 0 mm | - | 250 W/m² | - |
| 1777816075 | 15.56° C | 68% | 1020.7 hPa | 0 mm | - | 114 W/m² | - |
| 1777815772 | 15° C | 68% | 1020.8 hPa | 0 mm | - | 60 W/m² | - |
| 1777815470 | 15° C | 70% | 1020.7 hPa | 0 mm | - | 35 W/m² | - |
| 1777815166 | 14.44° C | 70% | 1020.8 hPa | 0 mm | - | 37 W/m² | - |
| 1777814863 | 13.89° C | 72% | 1020.8 hPa | 0 mm | - | 35 W/m² | - |
| 1777814559 | 13.89° C | 75% | 1020.6 hPa | 0 mm | - | 34 W/m² | - |
| 1777814256 | 13.33° C | 77% | 1020.4 hPa | 0 mm | - | 34 W/m² | - |
| 1777813953 | 13.89° C | 77% | 1020.5 hPa | 0 mm | - | 34 W/m² | - |
| 1777813651 | 13.33° C | 80% | 1020.3 hPa | 0 mm | - | 32 W/m² | - |
| 1777813347 | 12.78° C | 78% | 1020.3 hPa | 0 mm | - | 31 W/m² | - |
| 1777813045 | 12.78° C | 83% | 1020.5 hPa | 0 mm | - | 32 W/m² | - |
| 1777812743 | 12.22° C | 85% | 1020.4 hPa | 0 mm | - | 31 W/m² | - |
| 1777812439 | 11.67° C | 81% | 1020.4 hPa | 0 mm | - | 34 W/m² | - |
* Rain latest hour (hover to see other rain measurements)
** Current wind speed in m/s (hover to see current wind gust speed)